Satellite-Ground Cal/Val Site Overpasses Predictions

Prediction of Satellite NPP Overpassing Cal/Val Site: Antarctic Dome C

Ground Cal/Val Site Location: Latitude: -75.10, Longitude: 123.35; Satellite-Ground Site NADIR distance within 100 km.

Table of predicted overpasses for the next 14.0 days since TLE Epoch: 10/3/2014
Interval Starting Time Ending Time Minimum Distance Time Minimum Distance (km)
1 10/04/2014 15:03:39 10/04/2014 15:04:08 10/04/2014 15:03:53 24.95
2 10/05/2014 14:44:57 10/05/2014 14:45:14 10/05/2014 14:45:05 82.15
3 10/06/2014 07:46:32 10/06/2014 07:47:00 10/06/2014 07:46:46 35.01
4 10/07/2014 07:27:49 10/07/2014 07:28:08 10/07/2014 07:27:58 74.83
5 10/09/2014 15:10:08 10/09/2014 15:10:30 10/09/2014 15:10:19 62.51
6 10/10/2014 14:51:18 10/10/2014 14:51:43 10/10/2014 14:51:31 46.70
7 10/11/2014 07:53:01 10/11/2014 07:53:21 10/11/2014 07:53:11 70.73
8 10/12/2014 07:34:09 10/12/2014 07:34:36 10/12/2014 07:34:23 36.97
9 10/15/2014 14:57:41 10/15/2014 14:58:10 10/15/2014 14:57:55 10.56


NCC Satellite Cal/Val Overpasses Prediction Service
